Sedona, AZ

5:20 AM MST on November 21, 2017 (GMT -0700)
Sedona

Weather History for KSEZ - December, 2013

Change the Weather History Date:

Thursday, December 19, 2013

  Actual Average Record
Temperature  
Mean Temperature 48 °F -  
Max Temperature 59 °F 55 °F 59 °F (2013)
Min Temperature 37 °F 30 °F 32 °F (2012)
Degree Days  
Heating Degree Days 17    
Moisture  
Dew Point 29 °F    
Average Humidity 52    
Maximum Humidity 93    
Minimum Humidity 29    
Precipitation  
Precipitation 0.35 in - - ()
Sea Level Pressure  
Sea Level Pressure 29.78 in    
Wind  
Wind Speed 10 mph (South)    
Max Wind Speed 21 mph    
Max Gust Speed 32 mph    
Visibility 10 miles    
Events Rain    
Averages and records for this station are not official NWS values.
T = Trace of Precipitation, MM = Missing Value Source: NWS Daily Summary

Daily Weather History Graph

Daily Weather History Graph

Search for Another Location

Airport or City:

Trip Planner

Search our weather history database for the weather conditions in past years. The results will help you decide how hot, cold, wet, or windy it might be!

Date:

Astronomy

Dec. 19, 2013 Rise Set
Actual Time 7:29 AM MST 5:19 PM MST
Civil Twilight 7:01 AM MST 5:47 PM MST
Nautical Twilight 6:30 AM MST 6:18 PM MST
Astronomical Twilight 5:59 AM MST 6:49 PM MST
Moon 7:43 PM MST (12/19) 8:55 AM MST (12/19)
Length of Visible Light 10h 45m
Length of Day
9h 49m
Waning Gibbous, 95% of the Moon is Illuminated
Dec 19
Waning Gibbous
Dec 25
Last Quarter
Jan 1
New
Jan 7
First Quarter
Jan 15
Full

Hourly Weather History & Observations

Time (MST) Temp. Windchill Dew Point Humidity Pressure Visibility Wind Dir Wind Speed Gust Speed Precip Events Conditions
12:15 AM 50.0 °F - 24.8 °F 37% 29.88 in 10.0 mi South 9.2 mph - N/A   Clear
12:35 AM 50.0 °F - 23.0 °F 35% 29.87 in 10.0 mi SSE 10.4 mph - N/A   Clear
12:55 AM 50.0 °F - 24.8 °F 37% 29.86 in 10.0 mi SSE 9.2 mph - N/A   Clear
1:35 AM 50.0 °F - 24.8 °F 37% 29.85 in 10.0 mi SSE 10.4 mph - N/A   Clear
1:55 AM 50.0 °F - 24.8 °F 37% 29.84 in 10.0 mi SSE 12.7 mph - N/A   Clear
2:15 AM 50.0 °F - 24.8 °F 37% 29.84 in 10.0 mi SSE 12.7 mph - N/A   Clear
2:35 AM 50.0 °F - 24.8 °F 37% 29.84 in 10.0 mi South 11.5 mph - N/A   Clear
2:55 AM 50.0 °F - 26.6 °F 40% 29.84 in 10.0 mi South 9.2 mph - N/A   Clear
3:15 AM 50.0 °F - 26.6 °F 40% 29.83 in 10.0 mi South 8.1 mph - N/A   Clear
3:35 AM 50.0 °F - 26.6 °F 40% 29.83 in 10.0 mi South 11.5 mph 19.6 mph N/A   Clear
3:55 AM 48.2 °F - 26.6 °F 43% 29.82 in 10.0 mi South 5.8 mph 9.2 mph N/A   Clear
4:15 AM 48.2 °F - 26.6 °F 43% 29.81 in 10.0 mi South 5.8 mph - N/A   Clear
4:35 AM 48.2 °F - 26.6 °F 43% 29.81 in 10.0 mi SSW 6.9 mph - N/A   Clear
4:55 AM 48.2 °F - 28.4 °F 46% 29.80 in 10.0 mi SSE 3.5 mph - N/A   Clear
5:15 AM 46.4 °F 41.1 °F 28.4 °F 50% 29.79 in 10.0 mi South 11.5 mph - N/A   Clear
5:35 AM 46.4 °F 41.1 °F 28.4 °F 50% 29.79 in 10.0 mi SSE 11.5 mph - N/A   Clear
5:55 AM 46.4 °F 42.4 °F 28.4 °F 50% 29.80 in 10.0 mi South 8.1 mph 16.1 mph N/A   Clear
6:15 AM 46.4 °F 42.4 °F 28.4 °F 50% 29.79 in 10.0 mi South 8.1 mph - N/A   Clear
6:35 AM 44.6 °F 40.7 °F 28.4 °F 53% 29.79 in 10.0 mi SSE 6.9 mph - N/A   Clear
6:55 AM 44.6 °F 40.2 °F 28.4 °F 53% 29.80 in 10.0 mi South 8.1 mph - N/A   Clear
7:15 AM 44.6 °F 40.2 °F 28.4 °F 53% 29.81 in 10.0 mi South 8.1 mph - N/A   Mostly Cloudy
7:35 AM 44.6 °F 42.2 °F 28.4 °F 53% 29.81 in 10.0 mi South 4.6 mph - N/A   Overcast
7:55 AM 44.6 °F 43.1 °F 28.4 °F 53% 29.81 in 10.0 mi South 3.5 mph - N/A   Mostly Cloudy
8:15 AM 46.4 °F 41.9 °F 28.4 °F 50% 29.80 in 10.0 mi SSE 9.2 mph 16.1 mph N/A   Scattered Clouds
8:35 AM 48.2 °F - 28.4 °F 46% 29.80 in 10.0 mi South 9.2 mph - N/A   Scattered Clouds
8:55 AM 50.0 °F - 28.4 °F 43% 29.80 in 10.0 mi South 8.1 mph - N/A   Scattered Clouds
9:15 AM 50.0 °F - 28.4 °F 43% 29.80 in 10.0 mi South 11.5 mph 16.1 mph N/A   Scattered Clouds
9:35 AM 51.8 °F - 28.4 °F 41% 29.80 in 10.0 mi South 10.4 mph 18.4 mph N/A   Scattered Clouds
9:55 AM 50.0 °F - 26.6 °F 40% 29.80 in 10.0 mi SSE 18.4 mph 26.5 mph N/A   Clear
10:15 AM 51.8 °F - 26.6 °F 38% 29.79 in 10.0 mi SSE 18.4 mph 32.2 mph N/A   Clear
10:35 AM 53.6 °F - 26.6 °F 35% 29.79 in 10.0 mi South 18.4 mph 27.6 mph N/A   Scattered Clouds
10:55 AM 53.6 °F - 26.6 °F 35% 29.79 in 10.0 mi South 18.4 mph 25.3 mph N/A   Mostly Cloudy
11:15 AM 53.6 °F - 26.6 °F 35% 29.79 in 10.0 mi South 16.1 mph 28.8 mph N/A   Overcast
11:35 AM 55.4 °F - 26.6 °F 33% 29.77 in 10.0 mi SSE 20.7 mph 28.8 mph N/A   Overcast
11:55 AM 57.2 °F - 26.6 °F 31% 29.77 in 10.0 mi SSE 16.1 mph 28.8 mph N/A   Overcast
12:15 PM 59.0 °F - 26.6 °F 29% 29.76 in 10.0 mi South 13.8 mph 29.9 mph N/A   Overcast
12:35 PM 53.6 °F - 26.6 °F 35% 29.75 in 10.0 mi South 17.3 mph 24.2 mph N/A   Scattered Clouds
12:55 PM 53.6 °F - 26.6 °F 35% 29.74 in 10.0 mi South 18.4 mph 24.2 mph N/A   Clear
1:15 PM 53.6 °F - 24.8 °F 33% 29.74 in 10.0 mi South 8.1 mph 18.4 mph N/A   Clear
1:35 PM 53.6 °F - 24.8 °F 33% 29.73 in 10.0 mi South 13.8 mph 24.2 mph N/A   Mostly Cloudy
1:55 PM 53.6 °F - 26.6 °F 35% 29.72 in 10.0 mi SSE 13.8 mph 25.3 mph N/A   Overcast
2:15 PM 51.8 °F - 26.6 °F 38% 29.72 in 10.0 mi SSE 12.7 mph 20.7 mph N/A   Overcast
2:35 PM 51.8 °F - 26.6 °F 38% 29.72 in 10.0 mi SSE 13.8 mph 23.0 mph N/A   Overcast
2:55 PM 51.8 °F - 26.6 °F 38% 29.72 in 10.0 mi SSE 17.3 mph - N/A   Overcast
3:15 PM 51.8 °F - 26.6 °F 38% 29.72 in 10.0 mi South 13.8 mph 20.7 mph N/A   Overcast
3:35 PM 50.0 °F - 26.6 °F 40% 29.72 in 10.0 mi South 8.1 mph - N/A   Overcast
3:55 PM 50.0 °F - 26.6 °F 40% 29.73 in 10.0 mi SW 10.4 mph - N/A   Overcast
4:15 PM 50.0 °F - 26.6 °F 40% 29.73 in 10.0 mi SW 4.6 mph - N/A   Overcast
4:35 PM 48.2 °F - 26.6 °F 43% 29.74 in 10.0 mi SW 8.1 mph - N/A   Overcast
4:55 PM 48.2 °F - 26.6 °F 43% 29.74 in 10.0 mi SW 8.1 mph 17.3 mph N/A   Overcast
5:15 PM 46.4 °F 41.1 °F 28.4 °F 50% 29.74 in 10.0 mi SW 11.5 mph - N/A   Overcast
5:35 PM 46.4 °F 43.5 °F 28.4 °F 50% 29.74 in 10.0 mi SSE 5.8 mph - N/A   Overcast
5:55 PM 46.4 °F 42.9 °F 28.4 °F 50% 29.74 in 10.0 mi South 6.9 mph - N/A   Overcast
6:15 PM 46.4 °F - 30.2 °F 53% 29.74 in 10.0 mi Calm Calm - N/A   Overcast
6:35 PM 46.4 °F 45.2 °F 30.2 °F 53% 29.74 in 10.0 mi South 3.5 mph - N/A   Light Drizzle
6:55 PM 44.6 °F 39.7 °F 32.0 °F 61% 29.76 in 10.0 mi West 9.2 mph - N/A Rain Light Rain
7:15 PM 41.0 °F 35.8 °F 35.6 °F 81% 29.77 in 7.0 mi SE 8.1 mph - 0.01 in Rain Rain
7:35 PM 41.0 °F - 35.6 °F 81% 29.78 in 10.0 mi Calm Calm - 0.03 in Rain Rain
7:55 PM 41.0 °F 39.0 °F 35.6 °F 81% 29.77 in 10.0 mi NNE 3.5 mph - 0.05 in Rain Rain
8:15 PM 39.2 °F 34.2 °F 35.6 °F 87% 29.77 in 10.0 mi NNE 6.9 mph - 0.02 in Rain Light Rain
8:35 PM 39.2 °F 33.0 °F 35.6 °F 87% 29.75 in 10.0 mi North 9.2 mph - 0.06 in Rain Light Rain
8:55 PM 37.4 °F 33.8 °F 35.6 °F 93% 29.75 in 10.0 mi North 4.6 mph - 0.09 in Rain Rain
9:15 PM 37.4 °F - 35.6 °F 93% 29.77 in 10.0 mi Calm Calm - 0.01 in Rain Rain
9:35 PM 37.4 °F 33.8 °F 35.6 °F 93% 29.76 in 10.0 mi NNW 4.6 mph - 0.04 in Rain Light Rain
9:55 PM 37.4 °F - 35.6 °F 93% 29.75 in 10.0 mi Calm Calm - 0.04 in Rain Light Rain
10:15 PM 37.4 °F 34.9 °F 35.6 °F 93% 29.75 in 1.0 mi South 3.5 mph - N/A Rain Light Rain
10:35 PM 37.4 °F 33.8 °F 35.6 °F 93% 29.75 in 7.0 mi NE 4.6 mph - 0.05 in Rain Rain
10:55 PM 37.4 °F - 35.6 °F 93% 29.76 in 5.0 mi Calm Calm - 0.09 in Rain Rain
11:15 PM 37.4 °F - 35.6 °F 93% 29.76 in 0.5 mi Calm Calm - 0.04 in Rain Rain
11:35 PM 37.4 °F 32.1 °F 35.6 °F 93% 29.75 in 5.0 mi NE 6.9 mph - 0.07 in Rain Light Rain
11:55 PM 37.4 °F 32.8 °F 35.6 °F 93% 29.75 in 10.0 mi NE 5.8 mph - 0.08 in   Overcast